Voltar ao catálogo

STARLINK-31747

AtivoComunicaçõesVLEO
NORAD 59564·PAYLOAD·🇺🇸 United States

Lançado Apr 23, 2024 de Cape Canaveral Space Force Station

Loading…

Próximas Passagens (próximas 24 horas)

TLE

AtualizadoSource: CelesTrak SupGP

Época: Sep 15, 2026, 02:57 UTC

1 59564C 24076A   26258.12340278  .00022052  00000+0  79875-3 0  2585
2 59564  43.0043   8.5956 0001602 273.4533 188.2081 15.27566073    15

Acompanhe STARLINK-31747 em tempo real com AllMySat

Download on the App Store